This is the latest recevied weather packets stored in our database for station/object JE3XST-13. If no packets are shown the sender has not sent any weather packets the latest 10 day(s).
| Time | Temp. | Humidity | Pressure | Rain* | Wind** | Luminosity | Snow |
|---|---|---|---|---|---|---|---|
| 1777520726 | 13.89° C | 83% | 1018.4 hPa | 0.51 mm | - | - | - |
| 1777518927 | 13.89° C | 80% | 1018.6 hPa | 0.25 mm | - | - | - |
| 1777517127 | 13.89° C | 76% | 1018.9 hPa | 0 mm | - | - | - |
| 1777515327 | 13.89° C | 76% | 1019.2 hPa | 0 mm | - | - | - |
| 1777513526 | 13.33° C | 76% | 1019.6 hPa | 0.25 mm | - | - | - |
| 1777511727 | 13.33° C | 88% | 1020.1 hPa | 0.51 mm | - | - | - |
| 1777509926 | 13.33° C | 88% | 1020 hPa | 0.51 mm | - | - | - |
| 1777508126 | 13.33° C | 88% | 1020.1 hPa | 0.51 mm | - | - | - |
| 1777506326 | 12.78° C | 88% | 1019.8 hPa | 0.51 mm | - | - | - |
| 1777504526 | 12.78° C | 86% | 1019.5 hPa | 0.51 mm | - | - | - |
| 1777502725 | 12.78° C | 87% | 1019.3 hPa | 0.25 mm | - | - | - |
| 1777500926 | 12.78° C | 86% | 1019.1 hPa | 0 mm | - | - | - |
| 1777499127 | 12.78° C | 84% | 1019 hPa | 0 mm | - | - | - |
| 1777497326 | 12.78° C | 84% | 1018.7 hPa | 0 mm | - | - | - |
| 1777495526 | 12.78° C | 85% | 1018.7 hPa | 0 mm | - | - | - |
| 1777493725 | 12.78° C | 83% | 1018.7 hPa | 0 mm | - | - | - |
| 1777491926 | 12.78° C | 81% | 1018.8 hPa | 0 mm | - | - | - |
| 1777490126 | 12.78° C | 79% | 1018.6 hPa | 0 mm | - | - | - |
| 1777488326 | 12.78° C | 78% | 1018.3 hPa | 0 mm | - | - | - |
| 1777486525 | 13.33° C | 78% | 1018.3 hPa | 0 mm | - | - | - |
| 1777484726 | 13.33° C | 77% | 1018.2 hPa | 0 mm | - | - | - |
| 1777482926 | 13.33° C | 76% | 1018.3 hPa | 0 mm | - | - | - |
| 1777481126 | 13.33° C | 77% | 1018.2 hPa | 0 mm | - | - | - |
| 1777479327 | 13.33° C | 77% | 1018 hPa | 0 mm | - | - | - |
| 1777477527 | 13.33° C | 76% | 1018.3 hPa | 0 mm | - | - | - |
* Rain latest hour (hover to see other rain measurements)
** Current wind speed in m/s (hover to see current wind gust speed)